TimeCDT,TemperatureF,Dew PointF,Humidity,Sea Level PressureIn,VisibilityMPH,Wind Direction,Wind SpeedMPH,Gust SpeedMPH,PrecipitationIn,Events,Conditions,WindDirDegrees,DateUTC
12:15 AM,68.4,64.2,87,29.84,10.0,NE,6.9,-,0.04,Rain,Rain,40,2013-07-23 05:15:00
12:35 AM,68.0,63.9,87,29.78,10.0,NE,12.7,-,0.06,Rain,Light Rain,40,2013-07-23 05:35:00
12:55 AM,68.0,64.0,87,29.76,10.0,East,8.1,-,0.06,,Scattered Clouds,80,2013-07-23 05:55:00
1:15 AM,67.6,63.5,87,29.74,10.0,ENE,6.9,-,N/A,,Clear,70,2013-07-23 06:15:00
1:35 AM,67.3,63.5,88,29.75,10.0,South,9.2,-,N/A,,Clear,180,2013-07-23 06:35:00
1:55 AM,67.1,64.4,91,29.76,10.0,SW,9.2,-,N/A,,Clear,230,2013-07-23 06:55:00
2:15 AM,66.9,64.6,92,29.79,10.0,NW,13.8,-,N/A,,Clear,320,2013-07-23 07:15:00
2:35 AM,66.2,63.9,92,29.79,10.0,WNW,9.2,-,N/A,,Clear,290,2013-07-23 07:35:00
2:55 AM,65.7,63.5,93,29.78,10.0,West,8.1,-,N/A,,Clear,270,2013-07-23 07:55:00
3:15 AM,65.7,63.7,93,29.78,10.0,Calm,Calm,-,N/A,,Clear,0,2013-07-23 08:15:00
3:35 AM,64.8,62.8,93,29.77,10.0,SSW,8.1,-,N/A,,Clear,210,2013-07-23 08:35:00
3:55 AM,64.9,63.5,95,29.76,7.0,SSW,5.8,-,N/A,,Clear,200,2013-07-23 08:55:00
4:15 AM,64.9,63.5,95,29.77,7.0,SW,5.8,-,N/A,,Clear,230,2013-07-23 09:15:00
4:35 AM,64.9,63.5,95,29.77,10.0,WSW,6.9,-,N/A,,Clear,250,2013-07-23 09:35:00
4:55 AM,65.7,63.7,93,29.78,10.0,WSW,8.1,-,N/A,,Clear,240,2013-07-23 09:55:00
5:15 AM,65.8,63.5,92,29.78,10.0,WSW,8.1,-,N/A,,Clear,240,2013-07-23 10:15:00
5:35 AM,65.8,63.1,91,29.79,10.0,WSW,6.9,-,N/A,,Scattered Clouds,250,2013-07-23 10:35:00
5:55 AM,65.7,63.0,91,29.79,10.0,West,8.1,-,N/A,,Scattered Clouds,260,2013-07-23 10:55:00
6:15 AM,65.7,62.8,90,29.80,10.0,West,8.1,-,N/A,,Clear,260,2013-07-23 11:15:00
6:35 AM,65.8,62.6,89,29.79,10.0,West,6.9,-,N/A,,Clear,260,2013-07-23 11:35:00
6:55 AM,66.6,63.1,89,29.79,10.0,West,6.9,-,N/A,,Clear,270,2013-07-23 11:55:00
7:15 AM,67.1,63.1,87,29.80,10.0,West,8.1,-,0.01,,Clear,280,2013-07-23 12:15:00
7:35 AM,67.6,63.5,87,29.80,10.0,WNW,9.2,-,0.01,,Scattered Clouds,300,2013-07-23 12:35:00
7:55 AM,69.1,64.2,84,29.81,10.0,WNW,9.2,-,0.01,,Clear,300,2013-07-23 12:55:00
8:15 AM,70.0,64.8,83,29.82,10.0,NW,11.5,-,N/A,,Clear,310,2013-07-23 13:15:00
8:35 AM,70.7,65.1,82,29.83,10.0,NW,12.7,-,N/A,,Scattered Clouds,310,2013-07-23 13:35:00
8:55 AM,71.6,64.8,79,29.83,10.0,NNW,15.0,20.7,N/A,,Mostly Cloudy,330,2013-07-23 13:55:00
9:15 AM,71.6,64.8,79,29.83,10.0,NNW,13.8,-,N/A,,Overcast,340,2013-07-23 14:15:00
9:35 AM,72.7,65.5,78,29.83,10.0,North,11.5,16.1,N/A,,Overcast,350,2013-07-23 14:35:00
9:55 AM,73.2,64.6,74,29.84,10.0,North,12.7,-,N/A,,Overcast,350,2013-07-23 14:55:00
10:15 AM,73.8,65.1,74,29.85,10.0,North,5.8,-,N/A,,Mostly Cloudy,360,2013-07-23 15:15:00
10:35 AM,75.2,65.5,72,29.85,10.0,NNW,9.2,-,N/A,,Overcast,340,2013-07-23 15:35:00
10:55 AM,75.6,64.9,69,29.85,10.0,NNW,10.4,-,N/A,,Mostly Cloudy,340,2013-07-23 15:55:00
11:15 AM,75.4,64.0,68,29.86,10.0,North,11.5,-,N/A,,Overcast,350,2013-07-23 16:15:00
11:35 AM,76.8,64.0,65,29.86,10.0,NNW,12.7,16.1,N/A,,Overcast,330,2013-07-23 16:35:00
11:55 AM,76.6,63.5,64,29.87,10.0,North,11.5,-,N/A,,Overcast,360,2013-07-23 16:55:00
12:15 PM,78.1,62.8,59,29.87,10.0,North,10.4,16.1,N/A,,Mostly Cloudy,350,2013-07-23 17:15:00
12:35 PM,78.1,62.2,58,29.87,10.0,NW,13.8,18.4,N/A,,Mostly Cloudy,320,2013-07-23 17:35:00
12:55 PM,77.7,61.9,58,29.88,10.0,North,11.5,17.3,N/A,,Mostly Cloudy,350,2013-07-23 17:55:00
1:15 PM,77.9,62.1,58,29.87,10.0,NW,15.0,-,N/A,,Scattered Clouds,320,2013-07-23 18:15:00
1:35 PM,77.9,60.6,55,29.88,10.0,NNW,15.0,-,N/A,,Scattered Clouds,340,2013-07-23 18:35:00
1:55 PM,77.5,59.7,54,29.88,10.0,NNW,13.8,-,N/A,,Scattered Clouds,340,2013-07-23 18:55:00
2:15 PM,76.6,58.6,54,29.88,10.0,North,13.8,-,N/A,,Scattered Clouds,350,2013-07-23 19:15:00
2:35 PM,76.5,58.3,53,29.88,10.0,NNW,12.7,-,N/A,,Clear,330,2013-07-23 19:35:00
3:15 PM,76.3,58.1,53,29.88,10.0,NNW,12.7,19.6,N/A,,Scattered Clouds,340,2013-07-23 20:15:00
3:35 PM,76.6,58.1,53,29.88,10.0,North,13.8,17.3,N/A,,Scattered Clouds,350,2013-07-23 20:35:00
3:55 PM,75.4,57.4,53,29.88,10.0,NNW,15.0,-,N/A,,Scattered Clouds,340,2013-07-23 20:55:00
4:15 PM,76.1,57.6,53,29.87,10.0,North,10.4,16.1,N/A,,Scattered Clouds,360,2013-07-23 21:15:00
4:35 PM,75.6,57.4,53,29.87,10.0,North,11.5,17.3,N/A,,Clear,10,2013-07-23 21:35:00
4:55 PM,76.5,56.3,50,29.87,10.0,North,12.7,-,N/A,,Clear,10,2013-07-23 21:55:00
5:15 PM,76.1,56.5,50,29.87,10.0,North,9.2,-,N/A,,Clear,10,2013-07-23 22:15:00
5:35 PM,77.0,57.0,50,29.87,10.0,North,10.4,-,N/A,,Clear,360,2013-07-23 22:35:00
5:55 PM,77.0,56.5,49,29.87,10.0,NNE,12.7,19.6,N/A,,Scattered Clouds,20,2013-07-23 22:55:00
6:15 PM,76.5,55.8,49,29.87,10.0,North,10.4,-,N/A,,Clear,360,2013-07-23 23:15:00
6:35 PM,75.7,56.7,51,29.88,10.0,North,11.5,16.1,N/A,,Clear,10,2013-07-23 23:35:00
6:55 PM,75.2,56.5,52,29.88,10.0,NNE,10.4,-,N/A,,Clear,20,2013-07-23 23:55:00
7:15 PM,75.2,57.2,53,29.88,10.0,North,6.9,-,N/A,,Clear,10,2013-07-24 00:15:00
7:35 PM,73.4,56.8,56,29.88,10.0,North,8.1,-,N/A,,Clear,10,2013-07-24 00:35:00
7:55 PM,72.0,57.2,60,29.89,10.0,NNE,5.8,-,N/A,,Clear,20,2013-07-24 00:55:00
8:15 PM,70.0,57.4,64,29.89,10.0,NNE,6.9,-,N/A,,Clear,20,2013-07-24 01:15:00
8:35 PM,68.9,57.6,67,29.90,10.0,North,5.8,-,N/A,,Clear,10,2013-07-24 01:35:00
8:55 PM,68.4,57.2,67,29.91,10.0,North,5.8,-,N/A,,Clear,10,2013-07-24 01:55:00
9:15 PM,66.9,57.2,71,29.93,10.0,North,5.8,-,N/A,,Clear,10,2013-07-24 02:15:00
9:35 PM,66.6,57.2,72,29.94,10.0,NNE,10.4,-,N/A,,Mostly Cloudy,30,2013-07-24 02:35:00
9:55 PM,65.3,57.2,75,29.96,10.0,NE,8.1,-,N/A,,Scattered Clouds,50,2013-07-24 02:55:00
10:15 PM,64.0,57.6,79,29.97,10.0,ENE,5.8,-,N/A,,Clear,60,2013-07-24 03:15:00
10:35 PM,63.5,57.6,81,29.98,10.0,ENE,4.6,-,N/A,,Clear,60,2013-07-24 03:35:00
10:55 PM,63.1,58.1,84,29.98,10.0,ENE,4.6,-,N/A,,Clear,60,2013-07-24 03:55:00
11:15 PM,62.6,57.6,84,29.98,10.0,East,6.9,-,N/A,,Clear,80,2013-07-24 04:15:00
11:35 PM,62.6,57.2,82,29.98,10.0,ENE,5.8,-,N/A,,Clear,70,2013-07-24 04:35:00
11:55 PM,61.7,56.7,84,29.98,10.0,ENE,4.6,-,N/A,,Clear,60,2013-07-24 04:55:00